Powrót do katalogu

STARLINK-4108

AktywnyŁącznośćVLEO
NORAD 52834·PAYLOAD·🇺🇸 United States

Wystrzelony Jun 17, 2022 z Cape Canaveral Space Force Station

Loading…

Następne Przeloty (najbliższe 24 godziny)

TLE

ŚwieżeSource: CelesTrak SupGP

Epoka: Sep 14, 2026, 21:43 UTC

1 52834C 22062E   26257.90534722  .00037663  00000+0  12109-2 0  2574
2 52834  53.1576 254.8707 0001288  93.3668 110.5690 15.31690528    11

Śledź STARLINK-4108 w czasie rzeczywistym z AllMySat

Download on the App Store